Regional Weather Roundup
Issued by NWS Northern Indiana

Home | Current Version | Previous Version | Text Only | Print | Product List | Glossary Off
Versions: 1 2 3 4 5 6 7 8 9 10 11 12 13 14 15 16 17 18 19 20 21 22 23 24 25 26 27 28 29 30 31 32 33 34 35 36 37 38 39 40 41 42 43 44 45 46 47 48 49 50

000
ASUS43 KIWX 271110
RWRIWX

KIWX WEATHER ROUNDUP
NATIONAL WEATHER SERVICE NORTHERN INDIANA
600 AM EST FRI FEB 27 2015

NOTE: "FAIR" INDICATES FEW OR NO CLOUDS BELOW 12,000 FEET WITH NO
SIGNIFICANT WEATHER AND/OR OBSTRUCTIONS TO VISIBILITY.

* THESE STATIONS ARE NOT UNDER NWS QUALITY CONTROL. THEY ALSO MAY NOT
  REPORT WEATHER SUCH AS PRECIPITATION OR FOG.

INZ001>027-271200-
NORTHERN INDIANA

CITY           SKY/WX    TMP DP  RH WIND       PRES   REMARKS
GARY*          PTCLDY     5  -6  61 W9        30.49R WCI  -9
VALPARAISO     CLOUDY     3  -1  83 W6        30.47R WCI  -8
MICHIGAN CITY* CLEAR     -2  -9  71 CALM      30.48R
LAPORTE*       CLEAR     -4  -8  82 CALM      30.47R
KNOX*            N/A      1 -11  55 CALM      30.47R
SOUTH BEND     CLEAR     -5 -12  72 CALM      30.46R
GOSHEN         CLEAR     -9 -15  75 CALM      30.45R
MONTICELLO*    FLURRIES  -6 -10  81 CALM      30.49R
LOGANSPORT*    PTCLDY    -4  -6  92 SW6       30.48R WCI -16
ROCHESTER*     MOCLDY    12   9  85 CALM      30.47R
WARSAW*        PTCLDY     3  -4  72 CALM      30.46R
ANGOLA*        CLEAR    -13 -18  77 CALM      30.43R
FORT WAYNE     PTCLDY    -4  -8  83 W3        30.46R
HUNTINGTON*    CLOUDY    -2  -8  76 CALM      30.46R
PERU/GRISSOM   CLOUDY     1  -2  85 SW6       30.46R WCI -10
MARION*        CLOUDY    -1  -5  82 CALM      30.46R

$$
INZ028>050-271200-
CENTRAL INDIANA

CITY           SKY/WX    TMP DP  RH WIND       PRES   REMARKS
LAFAYETTE      MOCLDY    -3  -7  82 W3        30.51R
KOKOMO*        CLEAR      1  -4  78 W8        30.47R WCI -12
MUNCIE*        FAIR       1  -4  79 W3        30.45R
INDIANAPOLIS   MOCLDY     3  -1  83 NW8       30.47R WCI -10

$$
MIZ043>046-050>051-056>058-064>065-071>073-077>080-271200-
SOUTHWEST LOWER MICHIGAN

CITY           SKY/WX    TMP DP  RH WIND       PRES   REMARKS
BATTLE CREEK   CLEAR     -6 -15  65 CALM      30.43R
BENTON HARBOR  CLOUDY    -3  -9  75 CALM      30.47R
COLDWATER*     CLEAR    -13 -19  76 CALM      30.43R
HILLSDALE*     CLEAR     -6 -12  76 CALM      30.39R
HOLLAND        PTCLDY    -3 -12  65 SE5       30.47R WCI -13
GRAND RAPIDS   CLEAR     -6 -14  68 CALM      30.45R
KALAMAZOO      CLEAR     -8 -13  78 CALM      30.45R
STURGIS*       CLEAR     -9 -15  77 CALM      30.44R
THREE RIVERS*  FAIR     -11 -16  79 CALM      30.46R

$$
OHZ001>008-015>018-024>025-271200-
NORTHWEST OHIO

CITY           SKY/WX    TMP DP  RH WIND       PRES   REMARKS
WAUSEON*       FAIR      -4  -9  77 CALM      30.45R
DEFIANCE       CLEAR     -7 -12  79 CALM      30.47R
FINDLAY        CLEAR     -2  -7  79 CALM      30.43R
TOLEDO EXPRESS CLEAR     -7 -11  83 CALM      30.46R
TOLEDO METCALF CLEAR     -5 -10  79 CALM      30.47R
LIMA           CLEAR      1  -5  75 CALM      30.42R

$$
AND FOR LAKE MICHIGAN COASTAL AND OPEN LAKE BUOY OBSERVATIONS

STATION/POSITION TEMP    WIND        PRES    VSBY  WAVE
                 AIR SEA DIR/SP/G                  HT/PER
                 (F)     (DEG/KT/KT) (MB)    (MI)  (FT/S)
CALUMET HARBOR     6     290/  7/ 10 1030.9R
MICHIGAN CITY      6     130/  5/  5   N/A
SAINT JOSEPH       4     120/  3/  5 1032.8R

$$
&&


USA.gov is the U.S. government's official web portal to all federal, state and local government web resources and services.